Simultaneous Nadir Overpasses (SNOs) Predictions

Prediction of SNOs between GOES-17 and AQUA Satellite Orbit:

Table of predicted SNOs for the next 14.0 days since TLE Epoch: 6/22/2024
Index Date Time (GOES-17) GOES-17 Lat,Lon AQUA Lat,Lon Distance(km) Time Diff (sec)
1 06/23/2024 21:01:46 0.01,-104.70 0.49,-102.43 258.22 80
2 06/24/2024 09:21:52 -0.02,-104.70 0.57,-107.29 294.91 80
3 06/26/2024 09:02:35 -0.02,-104.70 -0.36,-103.24 167.25 80
4 06/26/2024 21:22:49 0.02,-104.70 -0.71,-108.13 390.74 80
5 06/28/2024 21:08:51 0.02,-104.70 0.14,-104.06 72.28 80
6 06/29/2024 09:28:56 -0.03,-104.70 0.90,-108.92 480.28 80
7 07/01/2024 09:12:17 -0.03,-104.70 0.00,-104.85 17.20 80
8 07/03/2024 08:52:57 -0.03,-104.70 -0.87,-100.78 445.86 80
9 07/03/2024 21:13:12 0.04,-104.69 -0.17,-105.68 112.12 80
10 07/05/2024 20:59:11 0.04,-104.69 0.69,-101.60 351.38 80
